Time,TemperatureF,DewpointF,PressureIn,WindDirection,WindDirectionDegrees,WindSpeedMPH,WindSpeedGustMPH,Humidity,HourlyPrecipIn,Conditions,Clouds,dailyrainin,SoftwareType,DateUTC
2013-03-17 00:02:00,27.0,20.0,-100.00,ESE,105,2.0,4.0,74,-99.99,,,-99.99,,2013-03-17 08:02:00,
2013-03-17 00:12:00,27.0,20.0,-100.00,ESE,105,2.0,4.0,74,-99.99,,,-99.99,,2013-03-17 08:12:00,
2013-03-17 00:22:00,26.0,20.0,-100.00,South,180,1.0,2.0,75,-99.99,,,-99.99,,2013-03-17 08:22:00,
2013-03-17 00:32:00,26.0,20.0,-100.00,South,180,1.0,2.0,75,-99.99,,,-99.99,,2013-03-17 08:32:00,
2013-03-17 00:42:00,26.0,20.0,-100.00,South,180,1.0,2.0,75,-99.99,,,-99.99,,2013-03-17 08:42:00,
2013-03-17 00:52:00,27.0,20.0,-100.00,SW,235,0.0,4.0,72,-99.99,,,-99.99,,2013-03-17 08:52:00,
2013-03-17 01:02:00,27.0,20.0,-100.00,SW,235,0.0,4.0,72,-99.99,,,-99.99,,2013-03-17 09:02:00,
2013-03-17 01:12:00,27.0,20.0,-100.00,SW,235,0.0,4.0,72,-99.99,,,-99.99,,2013-03-17 09:12:00,
2013-03-17 01:22:00,27.0,19.0,-100.00,South,170,2.0,5.0,72,-99.99,,,-99.99,,2013-03-17 09:22:00,
2013-03-17 01:32:00,27.0,19.0,-100.00,South,170,2.0,5.0,72,-99.99,,,-99.99,,2013-03-17 09:32:00,
2013-03-17 01:42:00,27.0,19.0,-100.00,South,170,2.0,5.0,72,-99.99,,,-99.99,,2013-03-17 09:42:00,
2013-03-17 01:52:00,28.0,18.0,-100.00,SSW,210,1.0,9.0,66,-99.99,,,-99.99,,2013-03-17 09:52:00,
2013-03-17 02:03:00,28.0,18.0,-100.00,SSW,210,1.0,9.0,66,-99.99,,,-99.99,,2013-03-17 10:03:00,
2013-03-17 02:12:00,28.0,18.0,-100.00,SSW,210,1.0,9.0,66,-99.99,,,-99.99,,2013-03-17 10:12:00,
2013-03-17 02:23:00,26.0,17.0,-100.00,SSW,210,4.0,6.0,69,-99.99,,,-99.99,,2013-03-17 10:23:00,
2013-03-17 02:33:00,26.0,17.0,-100.00,SSW,210,4.0,6.0,69,-99.99,,,-99.99,,2013-03-17 10:33:00,
2013-03-17 02:42:00,26.0,17.0,-100.00,SSW,210,4.0,6.0,69,-99.99,,,-99.99,,2013-03-17 10:42:00,
2013-03-17 02:52:00,26.0,18.0,-100.00,SE,140,6.0,9.0,71,-99.99,,,-99.99,,2013-03-17 10:52:00,
2013-03-17 03:02:00,26.0,18.0,-100.00,SE,140,6.0,9.0,71,-99.99,,,-99.99,,2013-03-17 11:02:00,
2013-03-17 03:12:00,26.0,18.0,-100.00,SE,140,6.0,9.0,71,-99.99,,,-99.99,,2013-03-17 11:12:00,
2013-03-17 03:22:00,27.0,19.0,-100.00,SSE,150,6.0,11.0,71,-99.99,,,-99.99,,2013-03-17 11:22:00,
2013-03-17 03:32:00,27.0,19.0,-100.00,SSE,150,6.0,11.0,71,-99.99,,,-99.99,,2013-03-17 11:32:00,
2013-03-17 03:42:00,27.0,19.0,-100.00,SSE,150,6.0,11.0,71,-99.99,,,-99.99,,2013-03-17 11:42:00,
2013-03-17 03:51:00,28.0,19.0,-100.00,South,185,6.0,10.0,67,-99.99,,,-99.99,,2013-03-17 11:51:00,
2013-03-17 04:02:00,28.0,19.0,-100.00,South,185,6.0,10.0,67,-99.99,,,-99.99,,2013-03-17 12:02:00,
2013-03-17 04:12:00,28.0,19.0,-100.00,South,185,6.0,10.0,67,-99.99,,,-99.99,,2013-03-17 12:12:00,
2013-03-17 04:22:00,28.0,18.0,-100.00,ESE,110,2.0,9.0,67,-99.99,,,-99.99,,2013-03-17 12:22:00,
2013-03-17 04:42:00,28.0,18.0,-100.00,ESE,110,2.0,9.0,67,-99.99,,,-99.99,,2013-03-17 12:42:00,
2013-03-17 04:52:00,26.0,18.0,-100.00,SSE,155,2.0,6.0,69,-99.99,,,-99.99,,2013-03-17 12:52:00,
2013-03-17 05:02:00,26.0,18.0,-100.00,SSE,155,2.0,6.0,69,-99.99,,,-99.99,,2013-03-17 13:02:00,
2013-03-17 05:12:00,26.0,18.0,-100.00,SSE,155,2.0,6.0,69,-99.99,,,-99.99,,2013-03-17 13:12:00,
2013-03-17 05:22:00,25.0,17.0,-100.00,SSW,195,1.0,9.0,70,-99.99,,,-99.99,,2013-03-17 13:22:00,
2013-03-17 05:32:00,25.0,17.0,-100.00,SSW,195,1.0,9.0,70,-99.99,,,-99.99,,2013-03-17 13:32:00,
2013-03-17 05:42:00,25.0,17.0,-100.00,SSW,195,1.0,9.0,70,-99.99,,,-99.99,,2013-03-17 13:42:00,
2013-03-17 05:52:00,24.0,16.0,-100.00,South,185,7.0,9.0,72,-99.99,,,-99.99,,2013-03-17 13:52:00,
2013-03-17 06:02:00,24.0,16.0,-100.00,South,185,7.0,9.0,72,-99.99,,,-99.99,,2013-03-17 14:02:00,
2013-03-17 06:12:00,24.0,16.0,-100.00,South,185,7.0,9.0,72,-99.99,,,-99.99,,2013-03-17 14:12:00,
2013-03-17 06:22:00,27.0,18.0,-100.00,SE,145,9.0,11.0,69,-99.99,,,-99.99,,2013-03-17 14:22:00,
2013-03-17 06:32:00,27.0,18.0,-100.00,SE,145,9.0,11.0,69,-99.99,,,-99.99,,2013-03-17 14:32:00,
2013-03-17 06:42:00,27.0,18.0,-100.00,SE,145,9.0,11.0,69,-99.99,,,-99.99,,2013-03-17 14:42:00,
2013-03-17 06:52:00,26.0,16.0,-100.00,SSE,160,6.0,10.0,66,-99.99,,,-99.99,,2013-03-17 14:52:00,
2013-03-17 07:02:00,26.0,16.0,-100.00,SSE,160,6.0,10.0,66,-99.99,,,-99.99,,2013-03-17 15:02:00,
2013-03-17 07:12:00,26.0,16.0,-100.00,SSE,160,6.0,10.0,66,-99.99,,,-99.99,,2013-03-17 15:12:00,
2013-03-17 07:22:00,24.0,15.0,-100.00,SE,145,4.0,6.0,69,-99.99,,,-99.99,,2013-03-17 15:22:00,
2013-03-17 07:33:00,24.0,15.0,-100.00,SE,145,4.0,6.0,69,-99.99,,,-99.99,,2013-03-17 15:33:00,
2013-03-17 07:42:00,24.0,15.0,-100.00,SE,145,4.0,6.0,69,-99.99,,,-99.99,,2013-03-17 15:42:00,
2013-03-17 07:52:00,25.0,15.0,-100.00,SSW,200,5.0,7.0,65,-99.99,,,-99.99,,2013-03-17 15:52:00,
2013-03-17 08:03:00,25.0,15.0,-100.00,SSW,200,5.0,7.0,65,-99.99,,,-99.99,,2013-03-17 16:03:00,
2013-03-17 08:12:00,25.0,15.0,-100.00,SSW,200,5.0,7.0,65,-99.99,,,-99.99,,2013-03-17 16:12:00,
2013-03-17 08:22:00,26.0,15.0,-100.00,SSE,150,7.0,7.0,64,-99.99,,,-99.99,,2013-03-17 16:22:00,
2013-03-17 08:33:00,26.0,15.0,-100.00,SSE,150,7.0,7.0,64,-99.99,,,-99.99,,2013-03-17 16:33:00,
2013-03-17 08:42:00,26.0,15.0,-100.00,SSE,150,7.0,7.0,64,-99.99,,,-99.99,,2013-03-17 16:42:00,
2013-03-17 08:52:00,25.0,15.0,-100.00,SSE,155,7.0,9.0,65,-99.99,,,-99.99,,2013-03-17 16:52:00,
2013-03-17 09:02:00,25.0,15.0,-100.00,SSE,155,7.0,9.0,65,-99.99,,,-99.99,,2013-03-17 17:02:00,
2013-03-17 09:12:00,25.0,15.0,-100.00,SSE,155,7.0,9.0,65,-99.99,,,-99.99,,2013-03-17 17:12:00,
2013-03-17 09:22:00,26.0,15.0,-100.00,SSE,165,6.0,9.0,62,-99.99,,,-99.99,,2013-03-17 17:22:00,
2013-03-17 09:33:00,26.0,15.0,-100.00,SSE,165,6.0,9.0,62,-99.99,,,-99.99,,2013-03-17 17:33:00,
2013-03-17 09:42:00,26.0,15.0,-100.00,SSE,165,6.0,9.0,62,-99.99,,,-99.99,,2013-03-17 17:42:00,
2013-03-17 09:52:00,25.0,15.0,-100.00,SSE,165,7.0,9.0,63,-99.99,,,-99.99,,2013-03-17 17:52:00,
2013-03-17 10:02:00,25.0,15.0,-100.00,SSE,165,7.0,9.0,63,-99.99,,,-99.99,,2013-03-17 18:02:00,
2013-03-17 10:12:00,25.0,15.0,-100.00,SSE,165,7.0,9.0,63,-99.99,,,-99.99,,2013-03-17 18:12:00,
2013-03-17 10:22:00,27.0,16.0,-100.00,SE,140,4.0,9.0,61,-99.99,,,-99.99,,2013-03-17 18:22:00,
2013-03-17 10:32:00,27.0,16.0,-100.00,SE,140,4.0,9.0,61,-99.99,,,-99.99,,2013-03-17 18:32:00,
2013-03-17 10:42:00,27.0,16.0,-100.00,SE,140,4.0,9.0,61,-99.99,,,-99.99,,2013-03-17 18:42:00,
2013-03-17 10:52:00,29.0,17.0,-100.00,SE,140,7.0,10.0,59,-99.99,,,-99.99,,2013-03-17 18:52:00,
2013-03-17 11:02:00,29.0,17.0,-100.00,SE,140,7.0,10.0,59,-99.99,,,-99.99,,2013-03-17 19:02:00,
2013-03-17 11:12:00,29.0,17.0,-100.00,SE,140,7.0,10.0,59,-99.99,,,-99.99,,2013-03-17 19:12:00,
2013-03-17 11:22:00,31.0,17.0,-100.00,SE,145,7.0,11.0,56,-99.99,,,-99.99,,2013-03-17 19:22:00,
2013-03-17 11:32:00,31.0,17.0,-100.00,SE,145,7.0,11.0,56,-99.99,,,-99.99,,2013-03-17 19:32:00,
2013-03-17 11:41:00,31.0,17.0,-100.00,SE,145,7.0,11.0,56,-99.99,,,-99.99,,2013-03-17 19:41:00,
2013-03-17 11:53:00,32.0,18.0,-100.00,SSE,150,5.0,9.0,54,-99.99,,,-99.99,,2013-03-17 19:53:00,
2013-03-17 12:02:00,32.0,18.0,-100.00,SSE,150,5.0,9.0,54,-99.99,,,-99.99,,2013-03-17 20:02:00,
2013-03-17 12:12:00,32.0,18.0,-100.00,SSE,150,5.0,9.0,54,-99.99,,,-99.99,,2013-03-17 20:12:00,
2013-03-17 12:22:00,33.0,18.0,-100.00,SW,220,11.0,15.0,54,-99.99,,,-99.99,,2013-03-17 20:22:00,
2013-03-17 12:32:00,33.0,18.0,-100.00,SW,220,11.0,15.0,54,-99.99,,,-99.99,,2013-03-17 20:32:00,
2013-03-17 12:42:00,33.0,18.0,-100.00,SW,220,11.0,15.0,54,-99.99,,,-99.99,,2013-03-17 20:42:00,
2013-03-17 12:52:00,34.0,18.0,-100.00,SW,225,10.0,16.0,52,-99.99,,,-99.99,,2013-03-17 20:52:00,
2013-03-17 13:02:00,34.0,18.0,-100.00,SW,225,10.0,16.0,52,-99.99,,,-99.99,,2013-03-17 21:02:00,
2013-03-17 13:12:00,34.0,18.0,-100.00,SW,225,10.0,16.0,52,-99.99,,,-99.99,,2013-03-17 21:12:00,
2013-03-17 13:22:00,34.0,18.0,-100.00,SW,220,10.0,14.0,52,-99.99,,,-99.99,,2013-03-17 21:22:00,
2013-03-17 13:33:00,34.0,18.0,-100.00,SW,220,10.0,14.0,52,-99.99,,,-99.99,,2013-03-17 21:33:00,
2013-03-17 13:42:00,34.0,18.0,-100.00,SW,220,10.0,14.0,52,-99.99,,,-99.99,,2013-03-17 21:42:00,
2013-03-17 13:52:00,36.0,19.0,-100.00,SSW,210,6.0,11.0,50,-99.99,,,-99.99,,2013-03-17 21:52:00,
2013-03-17 14:03:00,36.0,19.0,-100.00,SSW,210,6.0,11.0,50,-99.99,,,-99.99,,2013-03-17 22:03:00,
2013-03-17 14:12:00,36.0,19.0,-100.00,SSW,210,6.0,11.0,50,-99.99,,,-99.99,,2013-03-17 22:12:00,
2013-03-17 14:22:00,37.0,19.0,-100.00,WSW,245,4.0,7.0,46,-99.99,,,-99.99,,2013-03-17 22:22:00,
2013-03-17 14:33:00,37.0,19.0,-100.00,WSW,245,4.0,7.0,46,-99.99,,,-99.99,,2013-03-17 22:33:00,
2013-03-17 14:42:00,37.0,19.0,-100.00,WSW,245,4.0,7.0,46,-99.99,,,-99.99,,2013-03-17 22:42:00,
2013-03-17 14:52:00,38.0,17.0,-100.00,SW,235,4.0,6.0,41,-99.99,,,-99.99,,2013-03-17 22:52:00,
2013-03-17 15:02:00,38.0,17.0,-100.00,SW,235,4.0,6.0,41,-99.99,,,-99.99,,2013-03-17 23:02:00,
2013-03-17 15:12:00,38.0,17.0,-100.00,SW,235,4.0,6.0,41,-99.99,,,-99.99,,2013-03-17 23:12:00,
2013-03-17 15:22:00,38.0,16.0,-100.00,West,265,4.0,9.0,40,-99.99,,,-99.99,,2013-03-17 23:22:00,
2013-03-17 15:32:00,38.0,16.0,-100.00,West,265,4.0,9.0,40,-99.99,,,-99.99,,2013-03-17 23:32:00,
2013-03-17 15:42:00,38.0,16.0,-100.00,West,265,4.0,9.0,40,-99.99,,,-99.99,,2013-03-17 23:42:00,
2013-03-17 15:52:00,37.0,15.0,-100.00,NNW,335,7.0,10.0,41,-99.99,,,-99.99,,2013-03-17 23:52:00,
2013-03-17 16:03:00,37.0,15.0,-100.00,NNW,335,7.0,10.0,41,-99.99,,,-99.99,,2013-03-18 00:03:00,
2013-03-17 16:12:00,37.0,15.0,-100.00,NNW,335,7.0,10.0,41,-99.99,,,-99.99,,2013-03-18 00:12:00,
2013-03-17 16:22:00,36.0,16.0,-100.00,NW,310,6.0,12.0,42,-99.99,,,-99.99,,2013-03-18 00:22:00,
2013-03-17 16:32:00,36.0,16.0,-100.00,NW,310,6.0,12.0,42,-99.99,,,-99.99,,2013-03-18 00:32:00,
2013-03-17 16:42:00,36.0,16.0,-100.00,NW,310,6.0,12.0,42,-99.99,,,-99.99,,2013-03-18 00:42:00,
2013-03-17 16:52:00,37.0,17.0,-100.00,West,275,4.0,12.0,43,-99.99,,,-99.99,,2013-03-18 00:52:00,
2013-03-17 17:01:00,37.0,17.0,-100.00,West,275,4.0,12.0,43,-99.99,,,-99.99,,2013-03-18 01:01:00,
2013-03-17 17:12:00,37.0,17.0,-100.00,West,275,4.0,12.0,43,-99.99,,,-99.99,,2013-03-18 01:12:00,
2013-03-17 17:22:00,37.0,17.0,-100.00,WSW,250,6.0,7.0,43,-99.99,,,-99.99,,2013-03-18 01:22:00,
2013-03-17 17:32:00,37.0,17.0,-100.00,WSW,250,6.0,7.0,43,-99.99,,,-99.99,,2013-03-18 01:32:00,
2013-03-17 17:42:00,37.0,17.0,-100.00,WSW,250,6.0,7.0,43,-99.99,,,-99.99,,2013-03-18 01:42:00,
2013-03-17 17:52:00,36.0,16.0,-100.00,NW,325,6.0,9.0,42,-99.99,,,-99.99,,2013-03-18 01:52:00,
2013-03-17 18:02:00,36.0,16.0,-100.00,NW,325,6.0,9.0,42,-99.99,,,-99.99,,2013-03-18 02:02:00,
2013-03-17 18:12:00,36.0,16.0,-100.00,NW,325,6.0,9.0,42,-99.99,,,-99.99,,2013-03-18 02:12:00,
2013-03-17 18:22:00,36.0,17.0,-100.00,WSW,240,6.0,10.0,44,-99.99,,,-99.99,,2013-03-18 02:22:00,
2013-03-17 18:32:00,36.0,17.0,-100.00,WSW,240,6.0,10.0,44,-99.99,,,-99.99,,2013-03-18 02:32:00,
2013-03-17 18:42:00,36.0,17.0,-100.00,WSW,240,6.0,10.0,44,-99.99,,,-99.99,,2013-03-18 02:42:00,
2013-03-17 18:52:00,35.0,17.0,-100.00,West,260,4.0,10.0,46,-99.99,,,-99.99,,2013-03-18 02:52:00,
2013-03-17 19:02:00,35.0,17.0,-100.00,West,260,4.0,10.0,46,-99.99,,,-99.99,,2013-03-18 03:02:00,
2013-03-17 19:11:00,35.0,17.0,-100.00,West,260,4.0,10.0,46,-99.99,,,-99.99,,2013-03-18 03:11:00,
2013-03-17 19:22:00,34.0,17.0,-100.00,West,280,6.0,11.0,49,-99.99,,,-99.99,,2013-03-18 03:22:00,
2013-03-17 19:33:00,34.0,17.0,-100.00,West,280,6.0,11.0,49,-99.99,,,-99.99,,2013-03-18 03:33:00,
2013-03-17 19:42:00,34.0,17.0,-100.00,West,280,6.0,11.0,49,-99.99,,,-99.99,,2013-03-18 03:42:00,
2013-03-17 19:52:00,33.0,17.0,-100.00,WSW,245,5.0,11.0,51,-99.99,,,-99.99,,2013-03-18 03:52:00,
2013-03-17 20:02:00,33.0,17.0,-100.00,WSW,245,5.0,11.0,51,-99.99,,,-99.99,,2013-03-18 04:02:00,
2013-03-17 20:12:00,33.0,17.0,-100.00,WSW,245,5.0,11.0,51,-99.99,,,-99.99,,2013-03-18 04:12:00,
2013-03-17 20:22:00,33.0,18.0,-100.00,SW,235,12.0,14.0,53,-99.99,,,-99.99,,2013-03-18 04:22:00,
2013-03-17 20:33:00,33.0,18.0,-100.00,SW,235,12.0,14.0,53,-99.99,,,-99.99,,2013-03-18 04:33:00,
2013-03-17 20:42:00,33.0,18.0,-100.00,SW,235,12.0,14.0,53,-99.99,,,-99.99,,2013-03-18 04:42:00,
2013-03-17 20:52:00,33.0,16.0,-100.00,WSW,240,10.0,15.0,49,-99.99,,,-99.99,,2013-03-18 04:52:00,
2013-03-17 21:02:00,33.0,16.0,-100.00,WSW,240,10.0,15.0,49,-99.99,,,-99.99,,2013-03-18 05:02:00,
2013-03-17 21:12:00,33.0,16.0,-100.00,WSW,240,10.0,15.0,49,-99.99,,,-99.99,,2013-03-18 05:12:00,
2013-03-17 21:22:00,32.0,18.0,-100.00,WSW,255,11.0,17.0,55,-99.99,,,-99.99,,2013-03-18 05:22:00,
2013-03-17 21:32:00,32.0,18.0,-100.00,WSW,255,11.0,17.0,55,-99.99,,,-99.99,,2013-03-18 05:32:00,
2013-03-17 21:43:00,32.0,18.0,-100.00,WSW,255,11.0,17.0,55,-99.99,,,-99.99,,2013-03-18 05:43:00,
2013-03-17 21:52:00,32.0,19.0,-100.00,WSW,240,10.0,19.0,57,-99.99,,,-99.99,,2013-03-18 05:52:00,
2013-03-17 22:02:00,32.0,19.0,-100.00,WSW,240,10.0,19.0,57,-99.99,,,-99.99,,2013-03-18 06:02:00,
2013-03-17 22:12:00,32.0,19.0,-100.00,WSW,240,10.0,19.0,57,-99.99,,,-99.99,,2013-03-18 06:12:00,
2013-03-17 22:22:00,31.0,19.0,-100.00,SW,225,6.0,11.0,61,-99.99,,,-99.99,,2013-03-18 06:22:00,
2013-03-17 22:32:00,31.0,19.0,-100.00,SW,225,6.0,11.0,61,-99.99,,,-99.99,,2013-03-18 06:32:00,
2013-03-17 22:42:00,31.0,19.0,-100.00,SW,225,6.0,11.0,61,-99.99,,,-99.99,,2013-03-18 06:42:00,
2013-03-17 22:52:00,32.0,20.0,-100.00,SSW,195,9.0,12.0,61,-99.99,,,-99.99,,2013-03-18 06:52:00,
2013-03-17 23:02:00,32.0,20.0,-100.00,SSW,195,9.0,12.0,61,-99.99,,,-99.99,,2013-03-18 07:02:00,
2013-03-17 23:12:00,32.0,20.0,-100.00,SSW,195,9.0,12.0,61,-99.99,,,-99.99,,2013-03-18 07:12:00,
2013-03-17 23:22:00,32.0,21.0,-100.00,SW,215,6.0,12.0,62,-99.99,,,-99.99,,2013-03-18 07:22:00,
2013-03-17 23:32:00,32.0,21.0,-100.00,SW,215,6.0,12.0,62,-99.99,,,-99.99,,2013-03-18 07:32:00,
2013-03-17 23:42:00,32.0,21.0,-100.00,SW,215,6.0,12.0,62,-99.99,,,-99.99,,2013-03-18 07:42:00,
2013-03-17 23:52:00,32.0,21.0,-100.00,SSW,210,6.0,10.0,63,-99.99,,,-99.99,,2013-03-18 07:52:00,